Probability
0 0 0 0 0 0 0 0 0 0 0 0 0 3 0 6 19 32 39 48 39 35 29 23 29 29 26 19 16 16 13 6 6 13 13 13 10 13 10 10 10 10 10 10
0 0 0 0 0 0 0 0 0 0 0 0 0 6 6 6 13 19 32 45 42 32 32 32 29 26 19 13 13 13 13 13 3 10 13 13 10 10 10 10 10 10 10 10
0 0 0 0 0 0 0 0 0 0 0 0 0 3 6 3 10 19 26 35 39 35 32 32 26 19 19 10 13 13 10 10 6 10 10 6 3 3 6 6 6 6 10 10
0 0 0 0 0 0 0 0 0 0 0 0 0 0 0 6 6 10 23 23 35 32 35 32 26 29 13 13 13 13 10 6 6 10 10 10 10 10 6 6 10 6 6 6
0 0 0 0 0 0 0 0 0 0 0 0 0 0 0 3 3 3 13 19 26 26 29 26 26 26 19 13 13 13 6 6 6 6 6 10 10 6 6 3 10 10 3 3
0 0 0 0 0 0 0 0 0 0 0 0 0 0 0 3 3 3 3 13 16 23 23 13 19 23 32 19 13 6 13 10 10 6 6 3 3 0 0 3 6 6 6 0
0 0 0 0 0 0 0 0 0 0 0 0 0 0 0 0 3 3 3 6 13 16 19 19 16 23 29 23 13 13 10 10 6 6 6 3 0 0 0 0 3 6 6 3
0 0 0 0 0 0 0 0 0 0 0 0 0 0 0 0 0 3 6 10 6 10 13 16 19 23 19 19 10 13 13 10 6 6 6 0 0 0 0 0 3 3 3 6
0 0 0 0 0 0 0 0 0 0 0 0 0 0 0 0 6 10 10 10 6 6 16 13 13 10 13 13 6 10 6 6 6 6 3 3 0 0 0 0 0 0 3 0
0 0 0 0 0 0 0 0 0 0 0 0 0 0 0 0 3 6 6 10 10 6 16 13 13 6 10 10 3 3 10 6 6 6 6 10 6 6 0 0 0 0 0 0
0 0 0 0 0 0 0 0 0 0 0 0 0 0 0 0 0 0 3 3 10 3 10 10 10 6 3 6 6 3 6 10 6 6 6 6 10 10 6 0 0 0 0 0
0 0 0 0 0 0 0 0 0 0 0 0 0 0 0 0 0 0 0 0 6 10 10 3 6 6 6 6 6 6 6 10 10 10 6 10 10 10 10 6 3 0 0 0
0 0 0 0 0 0 0 0 0 0 0 0 0 0 0 0 0 0 0 0 6 6 6 3 3 6 6 3 10 6 6 10 6 6 6 6 10 10 10 6 3 3 0 0
0 0 0 0 0 0 0 0 0 0 0 0 0 0 0 0 0 3 3 10 10 10 3 0 3 6 6 3 6 10 6 10 6 6 6 6 6 10 10 10 3 3 3 3
0 0 0 0 0 0 0 0 0 0 0 0 0 0 0 3 3 6 10 10 10 10 3 0 0 3 6 3 6 10 10 6 10 10 10 10 3 6 10 6 6 3 3 3
0 0 0 0 0 0 0 0 0 0 0 0 0 0 3 3 6 10 13 10 3 3 6 3 3 0 0 0 6 6 6 6 6 6 6 6 6 6 6 3 3 6 3 3
0 0 0 0 0 0 0 0 0 0 0 0 0 0 3 0 3 6 6 6 3 3 6 3 0 3 3 0 3 6 6 6 6 6 6 6 6 6 3 3 3 3 3 3
0 0 0 0 0 0 0 0 0 0 3 0 6 6 0 0 6 6 3 6 6 3 0 3 3 3 0 0 0 3 3 6 6 3 6 6 6 6 3 3 3 3 3 3
0 0 0 0 0 0 0 0 0 0 3 3 3 0 3 3 0 0 3 3 0 3 0 3 0 0 0 0 0 3 3 3 3 3 6 6 6 3 3 3 3 0 0 0
0 0 0 0 0 0 0 0 0 0 0 0 0 3 3 0 0 0 0 0 0 0 0 0 0 0 0 0 0 0 0 0 0 0 3 3 3 3 3 3 0 0 0 0
0 0 0 0 0 0 0 0 0 0 0 0 0 3 0 0 0 0 0 0 3 3 0 0 0 0 0 0 0 0 0 0 0 0 3 3 0 0 0 0 0 0 0 0
0 0 0 0 0 0 0 0 0 0 0 0 0 0 0 0 0 0 0 0 0 0 0 0 0 0 0 0 0 0 0 0 0 0 0 0 0 0 0 0 0 0 0 0
0 0 0 0 0 0 0 0 0 0 0 0 0 0 0 0 0 0 0 0 0 0 0 0 3 0 0 0 0 0 0 0 0 0 0 0 0 0 0 0 0 0 0 0
0 0 0 0 0 0 0 0 0 0 0 0 0 0 0 0 0 0 0 0 0 0 0 0 3 3 0 0 0 0 0 0 0 0 0 0 0 0 0 0 0 0 0 0
0 0 0 0 0 0 0 0 0 0 0 0 0 0 0 0 0 0 0 0 0 0 0 0 3 3 3 0 0 0 0 0 0 0 0 0 0 0 0 0 0 0 0 0
0 0 0 0 0 0 0 0 0 0 0 0 0 0 0 0 0 0 0 0 0 0 0 0 3 3 0 0 0 0 0 0 0 0 0 0 0 0 0 0 0 0 0 0
Height
5862 5864 5863 5863 5863 5863 5863 5864 5864 5864 5862 5862 5862 5861 5861 5861 5860 5859 5858 5856 5854 5852 5850 5846 5843 5842 5840 5839 5837 5836 5836 5837 5839 5840 5841 5844 5847 5849 5852 5855 5858 5861 5864 5867
5858 5859 5859 5858 5859 5860 5860 5861 5861 5861 5859 5858 5858 5859 5858 5858 5857 5856 5855 5853 5851 5850 5848 5845 5843 5840 5839 5836 5835 5834 5834 5834 5836 5837 5839 5842 5845 5847 5850 5853 5856 5859 5862 5865
5852 5854 5853 5854 5855 5856 5856 5857 5857 5856 5856 5855 5855 5856 5855 5855 5854 5853 5852 5851 5849 5848 5846 5844 5841 5839 5838 5835 5833 5831 5831 5832 5833 5835 5837 5839 5842 5845 5847 5851 5854 5857 5860 5863
5846 5848 5848 5850 5851 5851 5853 5852 5852 5852 5852 5852 5852 5852 5853 5851 5850 5849 5849 5848 5846 5845 5844 5842 5840 5838 5835 5834 5832 5830 5830 5830 5831 5833 5835 5837 5840 5843 5846 5849 5852 5855 5858 5861
5841 5842 5843 5845 5846 5847 5849 5847 5848 5848 5848 5849 5849 5848 5850 5848 5847 5846 5845 5845 5844 5843 5841 5839 5837 5835 5834 5832 5830 5829 5829 5829 5830 5832 5833 5835 5837 5840 5843 5846 5849 5852 5855 5858
5835 5836 5838 5840 5841 5842 5844 5844 5844 5845 5845 5846 5846 5845 5846 5845 5844 5843 5842 5842 5841 5840 5838 5836 5835 5833 5832 5830 5829 5828 5828 5828 5829 5830 5831 5833 5835 5838 5841 5844 5847 5850 5853 5856
5829 5831 5833 5835 5836 5838 5839 5840 5841 5841 5842 5843 5843 5842 5843 5842 5841 5840 5839 5839 5838 5837 5835 5834 5833 5831 5830 5828 5827 5826 5826 5827 5827 5828 5829 5830 5832 5835 5838 5841 5844 5847 5850 5853
5823 5826 5828 5830 5832 5833 5834 5836 5838 5839 5839 5840 5839 5839 5841 5840 5838 5837 5837 5836 5836 5835 5833 5832 5831 5830 5828 5827 5826 5825 5825 5825 5826 5826 5827 5829 5831 5833 5835 5838 5841 5844 5847 5850
5818 5821 5823 5825 5826 5829 5830 5831 5834 5835 5835 5836 5836 5837 5837 5837 5836 5835 5835 5834 5833 5833 5832 5831 5830 5829 5827 5826 5825 5824 5824 5824 5824 5825 5826 5827 5829 5831 5833 5835 5838 5841 5844 5847
5812 5815 5818 5819 5822 5824 5826 5828 5829 5830 5831 5832 5833 5834 5835 5834 5834 5834 5832 5832 5831 5831 5830 5830 5829 5828 5827 5825 5824 5823 5823 5823 5824 5824 5825 5826 5827 5829 5830 5832 5835 5837 5840 5843
5807 5811 5813 5815 5817 5820 5822 5824 5825 5827 5828 5830 5830 5833 5832 5832 5832 5832 5831 5830 5830 5829 5828 5828 5828 5827 5826 5825 5824 5823 5823 5823 5823 5823 5824 5824 5825 5826 5828 5830 5832 5835 5837 5840
5802 5806 5808 5811 5813 5815 5817 5819 5822 5824 5825 5826 5827 5832 5829 5830 5830 5830 5829 5829 5828 5827 5827 5827 5826 5826 5825 5824 5823 5822 5822 5822 5821 5822 5822 5822 5823 5824 5825 5827 5829 5832 5834 5837
5798 5801 5804 5806 5810 5811 5813 5815 5818 5820 5821 5822 5824 5828 5827 5827 5827 5827 5827 5826 5826 5826 5826 5825 5825 5824 5823 5823 5822 5821 5821 5820 5820 5820 5820 5821 5821 5822 5823 5824 5827 5829 5831 5834
5793 5795 5799 5803 5805 5807 5809 5811 5813 5815 5817 5818 5820 5822 5823 5824 5825 5825 5825 5824 5824 5824 5824 5824 5823 5822 5822 5821 5821 5820 5820 5819 5819 5818 5818 5819 5819 5820 5820 5821 5824 5826 5828 5830
5787 5790 5793 5797 5800 5802 5804 5806 5808 5810 5812 5814 5816 5818 5819 5820 5821 5822 5822 5822 5822 5822 5822 5822 5821 5820 5820 5820 5819 5818 5818 5818 5817 5817 5816 5817 5817 5817 5818 5819 5821 5823 5825 5827
5780 5783 5787 5790 5794 5796 5798 5801 5803 5805 5807 5809 5811 5813 5814 5815 5817 5817 5818 5818 5819 5819 5819 5819 5819 5818 5818 5817 5817 5816 5816 5815 5815 5815 5815 5815 5815 5815 5815 5817 5818 5820 5822 5824
5773 5777 5780 5783 5787 5789 5792 5795 5797 5799 5801 5803 5805 5808 5809 5811 5812 5813 5813 5814 5814 5815 5815 5815 5815 5815 5815 5815 5814 5814 5813 5813 5813 5813 5813 5813 5813 5813 5814 5815 5816 5817 5818 5820
5765 5769 5772 5776 5780 5782 5787 5789 5791 5792 5794 5796 5798 5801 5803 5805 5806 5807 5808 5808 5809 5810 5810 5810 5810 5811 5811 5811 5810 5810 5810 5810 5810 5810 5810 5810 5810 5810 5811 5812 5813 5814 5815 5816
5756 5761 5764 5767 5770 5773 5778 5781 5783 5785 5787 5789 5791 5793 5795 5797 5799 5800 5801 5802 5803 5804 5804 5804 5805 5805 5805 5805 5805 5805 5805 5806 5806 5806 5806 5807 5807 5807 5808 5808 5809 5810 5811 5811
5747 5751 5755 5758 5761 5764 5770 5773 5775 5778 5779 5782 5784 5786 5788 5790 5792 5794 5794 5795 5796 5797 5797 5797 5798 5798 5799 5799 5800 5800 5801 5801 5801 5802 5802 5802 5802 5803 5803 5804 5804 5805 5806 5806
5738 5741 5745 5749 5752 5755 5760 5764 5767 5770 5773 5775 5776 5777 5779 5782 5784 5786 5787 5788 5789 5789 5790 5790 5791 5791 5792 5793 5793 5794 5795 5795 5796 5797 5797 5797 5797 5797 5798 5798 5799 5800 5801 5801
5728 5732 5736 5739 5743 5749 5752 5755 5759 5761 5764 5766 5768 5769 5771 5773 5775 5777 5779 5780 5781 5782 5783 5783 5784 5785 5785 5786 5787 5788 5788 5790 5790 5791 5791 5792 5792 5792 5792 5792 5794 5794 5795 5795
5720 5724 5727 5731 5736 5740 5743 5747 5750 5752 5755 5758 5760 5762 5764 5766 5767 5769 5771 5772 5773 5774 5775 5776 5777 5777 5778 5778 5780 5781 5781 5783 5783 5784 5785 5785 5786 5786 5786 5786 5787 5788 5789 5789
5712 5715 5719 5722 5726 5730 5735 5738 5741 5744 5747 5749 5752 5754 5756 5758 5760 5761 5763 5764 5766 5766 5767 5768 5769 5769 5770 5771 5772 5773 5775 5776 5776 5777 5778 5779 5779 5780 5781 5781 5781 5782 5782 5782
5704 5708 5711 5715 5718 5722 5726 5730 5733 5736 5739 5741 5744 5746 5749 5751 5752 5754 5755 5757 5758 5759 5759 5760 5761 5761 5762 5763 5764 5766 5767 5769 5770 5770 5771 5772 5773 5773 5774 5774 5774 5774 5774 5774
5696 5700 5704 5707 5711 5715 5719 5722 5725 5728 5731 5734 5736 5739 5741 5743 5745 5746 5748 5749 5750 5751 5752 5752 5753 5754 5755 5756 5757 5758 5760 5762 5763 5764 5764 5765 5766 5766 5766 5767 5767 5766 5766 5766
Wind_Speed
21 20 18 19 19 18 17 16 15 16 19 20 20 19 18 17 17 17 16 17 17 17 18 18 16 14 12 11 11 10 10 10 10 10 10 13 15 16 17 18 18 18 17 16
22 21 21 21 20 19 18 17 16 17 20 22 21 20 19 18 18 18 17 17 17 17 18 18 17 15 13 11 10 9 9 10 10 11 12 13 15 16 17 18 19 18 18 17
24 23 23 22 21 20 19 18 18 19 21 22 22 20 18 18 19 18 17 16 16 17 17 17 16 15 14 12 10 7 8 10 11 11 12 13 14 15 15 16 18 19 18 18
26 25 24 23 22 21 19 20 21 21 22 21 22 21 17 18 18 18 16 14 15 15 15 15 15 15 14 12 10 8 8 9 10 11 11 13 15 15 16 17 19 19 19 18
26 26 26 24 22 22 20 22 22 22 22 21 21 21 17 18 17 15 14 12 13 13 14 15 14 13 12 11 10 8 8 8 10 11 12 12 15 16 16 17 19 19 19 19
28 28 26 24 24 23 21 22 23 22 22 21 19 20 16 15 15 14 12 11 12 13 14 14 12 11 10 10 9 8 7 8 10 11 12 13 14 16 17 18 19 20 20 19
27 26 25 24 24 23 22 22 22 22 21 19 17 17 15 13 13 12 12 11 12 13 12 11 10 9 8 9 8 7 7 8 9 10 11 11 14 16 17 19 20 21 21 20
26 25 24 23 22 22 22 22 21 20 19 17 17 16 14 12 11 11 10 10 11 12 10 9 9 7 7 7 7 7 7 8 8 10 11 12 13 15 17 20 20 20 21 20
24 24 24 23 22 23 22 22 21 20 19 18 16 15 13 11 10 11 10 10 10 10 9 8 7 6 6 6 6 6 6 8 9 10 11 12 14 15 17 20 21 21 20 20
23 23 23 23 23 23 22 21 20 19 18 17 15 13 11 9 9 9 8 9 9 9 9 8 6 6 6 5 5 4 5 7 9 10 11 12 13 15 17 18 20 20 21 20
23 23 23 23 23 22 22 22 21 20 19 17 15 13 11 10 9 8 7 8 8 9 9 8 8 8 7 5 4 4 5 5 7 9 10 12 13 14 15 17 19 20 20 20
23 23 24 24 25 25 24 23 22 20 19 17 16 13 11 10 10 9 8 8 8 8 8 7 7 8 7 6 6 5 5 5 6 7 9 10 12 14 15 17 18 18 20 20
24 24 24 25 26 26 26 25 23 22 21 19 17 14 12 11 10 10 10 9 9 8 8 7 7 7 6 7 7 6 5 6 6 7 8 9 11 13 15 17 18 18 20 20
27 26 25 24 25 26 26 26 25 24 23 22 20 18 16 14 13 12 12 12 11 9 8 8 7 6 7 7 7 6 7 7 7 7 7 8 10 12 14 16 17 18 19 20
29 28 26 25 25 27 27 27 26 26 25 24 23 21 19 17 15 14 14 13 12 11 11 10 9 7 8 8 8 7 8 8 7 8 8 8 10 11 13 15 16 16 17 19
32 31 29 28 27 28 30 29 28 28 28 27 25 24 22 20 17 16 16 15 14 13 13 13 12 10 10 11 10 10 10 9 8 8 8 9 10 11 12 14 15 16 16 17
36 35 33 32 31 30 31 31 31 31 30 29 27 25 23 21 20 19 19 19 18 17 16 15 15 14 14 13 13 12 11 10 10 10 10 10 10 10 12 13 14 16 17 17
39 39 38 38 36 36 33 31 31 32 32 32 30 29 27 25 24 23 22 21 21 20 20 18 17 18 18 17 16 16 14 13 12 11 10 10 10 10 10 11 12 15 16 18
41 41 41 41 41 40 38 35 34 34 34 32 32 31 29 27 25 25 24 23 22 22 22 22 20 20 20 20 18 18 17 16 15 14 13 13 12 12 12 13 13 15 16 17
42 43 43 43 43 42 40 38 37 36 35 32 32 31 30 28 27 26 27 25 24 24 24 24 23 23 22 22 21 20 19 18 17 17 16 17 16 15 15 16 16 16 17 19
41 42 43 43 43 42 40 39 37 36 34 32 32 30 30 29 29 28 27 27 25 25 24 24 24 23 23 23 23 21 20 19 19 19 18 18 19 18 18 18 19 19 20 20
38 39 41 42 43 41 39 38 37 36 34 33 32 30 29 29 28 27 26 26 27 26 25 24 23 23 24 24 24 23 22 22 21 20 20 21 21 21 20 20 21 20 20 19
36 36 37 38 40 39 38 37 36 35 33 32 31 30 29 28 28 27 26 26 26 26 26 25 25 25 25 25 25 24 23 23 23 22 22 22 22 22 21 21 21 22 22 22
35 36 35 35 36 37 36 35 34 34 33 32 31 30 28 27 27 26 25 25 25 25 25 25 25 25 24 24 24 24 24 24 23 23 23 23 22 22 22 21 22 23 24 25
34 34 35 34 34 33 33 32 32 32 32 31 29 28 27 26 26 25 24 23 23 24 24 24 24 24 23 24 24 24 24 24 23 23 23 22 22 22 23 24 24 26 27 28
32 33 34 35 33 31 30 30 29 29 29 28 27 26 26 25 25 25 24 24 23 23 23 22 22 21 22 22 22 22 23 24 24 25 25 25 25 24 25 25 26 27 29 30
Wind_Direction
263 265 268 267 267 270 274 275 273 271 271 274 278 282 286 291 299 305 311 314 317 319 321 325 320 315 310 300 291 276 257 244 231 223 215 214 216 211 207 212 214 213 211 208
259 261 262 264 267 269 271 272 270 267 268 273 277 281 285 289 295 301 304 309 312 317 321 324 320 316 314 305 288 269 255 242 228 223 219 218 213 210 211 213 211 207 208 207
257 258 259 262 265 267 269 270 267 266 270 275 279 281 285 290 294 297 301 304 307 312 317 319 319 317 313 308 299 275 252 241 226 221 220 214 210 211 211 212 210 210 209 207
253 256 258 260 262 265 266 266 266 268 272 274 281 283 286 292 294 294 296 298 303 307 312 315 317 316 314 310 302 286 261 243 225 219 219 210 206 209 212 212 209 209 207 208
250 251 254 256 258 261 260 262 266 271 275 278 281 286 292 293 294 294 294 298 305 307 311 312 312 314 311 305 299 282 259 237 225 221 219 212 210 209 209 208 208 208 209 210
247 249 251 252 254 257 256 258 264 269 275 278 283 287 293 294 296 295 298 298 302 306 310 310 308 308 305 302 297 276 256 235 229 225 222 216 211 209 210 209 210 212 213 213
247 248 248 247 249 252 252 256 261 267 272 277 280 283 290 291 299 301 301 298 300 303 308 307 303 305 304 301 291 267 249 239 229 223 221 217 212 214 215 212 213 215 217 217
244 243 243 243 243 247 250 253 258 265 270 271 274 281 290 287 295 302 301 298 300 302 308 307 306 306 307 302 289 272 250 240 231 225 221 221 217 217 213 212 215 217 219 220
241 239 238 237 236 238 242 248 256 261 267 271 276 283 288 285 292 299 295 296 298 300 300 303 308 310 312 307 299 279 266 249 236 229 226 224 223 218 215 216 216 217 218 220
235 233 232 231 233 235 238 243 249 258 264 270 278 282 289 288 299 299 294 294 300 304 306 299 298 302 308 307 308 294 273 257 248 240 233 229 226 221 217 215 215 216 219 221
231 227 224 227 229 232 237 240 245 253 259 267 277 285 291 288 297 303 298 300 304 307 311 305 304 302 298 296 298 301 292 282 264 245 239 237 233 226 223 220 218 219 220 224
231 226 220 223 227 229 235 240 245 250 256 264 274 283 287 286 289 293 293 297 308 307 308 309 315 312 298 291 294 293 299 293 276 253 248 246 237 230 229 226 222 221 223 226
235 231 223 222 226 230 233 238 244 249 254 261 269 277 281 286 290 291 288 290 300 303 298 302 312 317 314 308 305 295 292 289 277 265 257 251 239 231 229 227 226 226 228 229
238 238 234 230 230 233 236 239 244 249 254 261 267 274 278 283 289 287 285 284 284 290 294 298 300 315 316 310 304 301 297 288 280 270 262 251 240 233 231 227 227 229 230 233
240 241 240 236 233 234 237 242 247 251 256 262 267 273 277 282 286 285 281 280 279 277 282 288 287 301 306 305 304 305 299 293 284 273 262 251 243 238 234 231 230 230 233 236
242 244 244 242 240 240 242 245 250 255 259 263 267 271 276 280 282 282 278 276 279 276 276 282 284 288 294 300 299 303 302 292 285 276 264 254 254 240 235 233 233 235 237 239
242 244 245 245 246 247 247 249 254 258 261 265 267 269 271 275 277 277 274 273 274 277 276 276 277 280 283 288 292 292 294 288 283 279 263 255 256 253 246 244 242 241 241 243
240 242 244 246 249 249 251 253 256 260 263 265 267 269 270 271 272 273 272 272 273 274 274 274 274 274 279 281 283 284 283 279 277 278 268 257 256 257 253 247 245 245 247 250
238 241 243 245 248 251 252 254 258 262 263 264 267 268 269 268 269 268 270 272 273 273 273 272 271 273 277 279 280 279 275 271 270 270 265 258 256 254 254 251 250 250 252 254
238 239 242 244 247 249 252 254 257 261 263 264 266 266 266 265 267 266 267 269 269 270 271 267 268 271 272 274 273 273 272 268 267 266 264 258 254 253 252 251 252 254 255 257
241 241 242 244 247 249 251 254 256 259 263 264 265 265 265 264 265 266 264 265 266 270 269 266 268 268 269 269 267 265 264 266 264 261 259 256 255 254 256 254 256 257 257 258
242 242 242 244 245 248 250 253 255 258 259 262 263 264 264 264 264 261 259 261 263 267 266 265 265 264 265 266 263 260 259 261 262 261 257 256 257 256 260 256 257 258 258 259
241 242 243 244 246 247 248 250 253 255 256 258 260 261 263 263 262 260 259 260 262 265 265 264 265 264 264 263 261 258 256 257 258 257 256 254 256 255 257 257 258 260 260 262
240 241 242 243 244 246 247 248 250 251 253 255 257 258 260 260 259 257 259 260 261 262 262 263 264 263 262 260 259 256 254 255 254 254 255 253 253 255 259 261 263 265 267 269
240 240 241 242 242 244 245 245 247 249 251 252 253 254 256 257 256 258 260 258 261 264 263 262 262 261 259 258 257 255 253 252 253 253 253 251 253 257 260 265 268 267 267 269
240 240 239 239 240 243 242 244 246 246 247 248 250 252 253 254 255 257 258 259 262 264 265 264 260 259 258 257 253 253 253 252 252 253 252 255 258 261 262 264 266 268 268 269